Temperature
14 14 14 14 15 15 15 15 15 15 16 17 17 17 17 17 17 17 17 17 17 17 17 17 17 17 16 16 16 16 16 16 15 15 15 15 15 15
13 13 14 14 14 15 15 15 15 15 15 16 17 17 17 17 17 17 17 17 17 17 17 17 17 17 16 16 16 16 16 15 15 15 15 15 14 14
13 13 13 14 14 14 14 15 15 15 15 15 16 16 16 16 16 16 17 17 17 17 17 17 17 16 16 16 16 16 15 15 15 15 15 14 14 14
12 13 13 13 13 14 14 14 14 15 15 15 15 15 16 16 16 16 16 16 16 16 16 16 16 16 16 16 16 15 15 15 15 15 14 14 14 14
12 12 13 13 13 13 14 14 14 14 14 14 15 15 15 15 15 15 16 16 16 16 16 16 16 16 16 16 15 15 15 15 15 14 14 14 14 13
12 12 12 12 13 13 13 14 14 14 14 14 14 14 15 15 15 15 15 15 15 15 15 15 15 15 15 15 15 15 15 15 14 14 14 14 13 13
11 11 12 12 12 13 13 13 13 14 14 14 14 14 14 14 14 15 15 15 15 15 15 15 15 15 15 15 15 14 14 14 14 14 13 13 13 13
11 11 12 12 12 12 13 13 13 13 13 13 13 13 14 14 14 14 14 14 14 14 14 14 15 15 14 15 14 14 14 14 14 13 13 13 13 13
11 11 11 12 12 12 12 13 13 13 13 13 13 13 14 14 14 14 14 14 14 14 14 14 14 14 14 14 14 14 14 13 13 13 13 13 12 12
11 11 11 11 12 12 12 12 13 13 13 13 13 13 13 14 14 14 14 14 14 14 14 13 13 13 13 13 13 13 13 13 13 13 12 12 12 12
11 11 11 11 12 12 12 12 12 13 13 13 13 13 13 13 13 13 13 13 13 13 13 13 13 13 13 13 13 13 13 12 12 12 12 12 12 12
11 11 11 11 11 11 12 12 12 12 12 13 13 13 13 13 13 13 13 13 13 12 12 13 13 12 12 12 12 12 12 12 12 12 12 12 11 11
11 11 11 11 11 11 12 12 12 12 12 12 12 12 13 13 13 13 13 13 13 13 13 12 12 12 12 12 11 11 12 12 12 11 11 11 11 11
11 11 11 11 11 11 12 12 12 12 12 12 12 12 12 12 12 12 13 13 12 13 13 13 13 12 12 12 11 11 11 11 11 11 11 11 11 11
11 11 11 11 11 11 12 12 12 12 12 12 12 12 12 12 12 12 12 12 12 12 12 12 13 12 12 12 12 11 11 11 11 11 11 10 11 11
11 11 11 11 11 11 11 12 12 12 12 12 12 12 12 12 12 12 12 12 12 11 12 12 12 12 12 12 12 11 11 11 11 10 10 10 10 10
11 11 11 11 11 11 11 11 11 11 11 12 12 12 12 12 11 11 11 11 11 11 11 11 11 11 11 11 11 11 11 11 11 10 10 10 10 10
11 11 11 11 11 11 11 11 11 11 11 11 11 11 11 11 11 11 11 11 11 11 11 11 11 11 11 11 11 11 11 11 10 10 10 10 10 10
12 12 11 11 11 11 11 11 11 11 11 11 11 11 11 11 11 11 11 11 11 11 11 11 11 11 11 10 10 10 11 10 10 10 10 10 10 10
12 12 12 11 11 11 11 11 11 11 11 11 11 11 11 11 11 11 11 11 11 11 11 11 11 11 11 11 11 11 10 10 10 10 10 10 10 9
12 12 12 12 11 11 11 12 12 12 11 11 11 11 11 11 11 11 11 11 11 11 11 11 11 11 10 10 10 11 10 10 10 10 10 10 9 9
12 12 12 12 12 12 11 12 12 12 11 11 11 11 11 11 11 11 11 11 11 11 11 11 11 10 10 10 10 11 10 10 10 10 9 10 9 9
12 12 12 12 12 12 12 11 11 12 12 11 11 11 11 11 11 11 11 11 11 11 11 10 10 10 10 10 10 10 10 10 10 9 9 9 9 9
Wind_Speed
5 6 5 5 5 5 5 5 5 5 6 6 5 4 4 6 13 17 16 24 26 25 24 23 22 21 20 19 18 17 16 16 15 15 14 12 11 10
5 6 6 5 5 5 5 5 6 6 5 5 6 4 4 4 13 15 15 23 26 25 25 24 23 22 21 20 19 18 17 17 16 16 15 13 12 11
5 5 6 6 5 5 5 5 6 5 6 4 4 4 5 5 6 8 11 14 17 23 24 24 23 22 22 21 21 20 19 18 18 17 16 15 13 12
6 6 6 5 5 5 5 6 6 6 6 6 4 4 6 5 5 6 6 10 13 20 23 24 23 23 23 22 22 21 20 20 20 19 18 16 15 13
6 6 5 5 4 3 4 5 5 6 5 5 4 4 4 4 4 4 5 5 9 15 20 22 23 23 23 23 22 22 21 21 21 20 18 17 15 14
6 6 5 4 4 4 4 4 5 5 5 5 4 4 4 4 5 5 5 5 6 8 12 15 19 21 22 22 23 23 22 22 22 20 19 18 16 15
7 6 5 5 6 4 4 4 4 4 4 5 5 4 5 5 6 5 6 5 5 5 7 8 9 10 14 19 21 22 23 22 22 21 20 19 17 16
7 7 6 5 6 7 7 7 6 6 5 5 5 6 7 6 6 7 7 6 5 5 7 7 7 9 9 13 19 23 23 23 22 22 21 20 18 16
7 6 6 5 5 4 6 7 7 10 10 7 7 7 6 6 7 8 8 6 5 6 6 5 6 7 7 14 21 23 23 23 22 22 21 20 18 17
6 5 5 5 4 4 5 5 5 6 7 7 7 7 6 5 7 7 7 5 4 4 4 5 5 4 5 9 20 22 23 23 22 21 20 20 19 19
6 5 5 4 5 6 5 6 6 5 5 6 7 7 7 8 7 6 7 7 5 4 3 4 5 4 4 5 12 20 21 22 21 21 21 21 20 19
6 5 4 5 6 6 5 5 6 4 3 3 4 6 6 8 11 9 8 8 5 4 4 5 5 5 4 2 5 11 15 18 20 20 21 21 21 15
6 5 4 7 8 8 7 5 7 5 4 3 3 3 4 5 6 6 6 7 7 4 7 6 5 4 5 4 3 6 9 9 12 14 19 21 21 15
5 4 4 9 10 9 6 6 7 5 3 3 2 3 4 4 4 5 6 5 5 6 11 8 5 6 6 5 4 6 7 9 9 8 12 17 17 15
5 7 9 11 10 7 6 6 5 2 2 2 2 2 2 3 4 4 5 5 5 7 10 7 7 8 7 6 7 6 6 6 9 8 9 10 9 9
5 7 9 9 6 5 5 4 2 1 0 1 1 1 2 3 4 4 5 6 5 4 5 7 9 9 6 7 8 8 6 8 9 9 8 7 10 13
5 5 5 4 3 2 3 2 1 1 0 0 1 2 3 4 4 4 4 5 4 5 5 4 5 5 6 7 8 8 8 6 8 9 8 8 8 10
4 5 5 4 3 3 2 2 1 1 1 1 2 2 3 4 4 4 4 5 6 6 5 5 6 5 4 3 4 9 8 7 7 8 6 7 8 8
4 6 6 5 4 3 3 2 2 2 2 2 2 3 3 4 4 4 5 5 6 6 6 6 6 6 6 5 3 6 8 7 8 8 7 6 7 7
6 7 6 5 4 4 4 3 3 3 3 3 3 4 4 4 5 5 6 6 6 6 6 6 6 6 6 6 5 5 10 9 8 9 7 5 4 4
7 7 7 6 5 5 5 4 4 4 4 4 5 5 5 5 5 5 6 8 7 6 7 7 6 6 3 4 5 4 4 7 9 7 8 6 5 4
7 7 6 6 6 5 5 5 5 5 5 5 5 6 6 6 6 7 7 7 7 6 6 5 5 5 3 5 6 6 5 4 4 6 9 9 6 7
8 7 6 6 6 5 5 6 6 5 5 6 6 6 6 6 6 6 7 7 7 7 6 6 6 5 4 5 5 5 7 7 5 4 4 9 8 7
Wind_Direction
267 260 245 236 234 228 224 208 199 214 229 227 227 233 217 199 176 182 181 189 189 191 192 192 192 192 194 195 196 195 192 189 184 183 182 182 180 176
270 258 250 236 232 230 226 223 215 213 226 220 217 216 219 205 186 191 188 189 191 191 191 191 191 192 193 192 190 188 186 182 181 180 180 179 177 175
293 281 268 249 233 232 228 223 224 218 230 240 221 213 213 208 192 195 185 180 191 192 191 191 191 191 190 188 186 184 182 180 179 178 179 177 172 168
301 298 286 273 245 231 224 223 222 218 217 231 230 213 216 206 193 197 192 183 185 193 192 190 189 189 188 186 183 182 180 179 177 175 175 174 172 171
309 305 300 294 272 247 231 225 225 228 217 220 225 213 213 200 197 205 201 188 186 190 191 190 188 187 185 184 182 180 179 177 174 173 172 171 171 172
310 303 298 298 288 276 259 245 233 227 222 220 222 210 204 193 182 194 204 195 189 178 182 184 185 183 182 181 180 178 176 173 172 171 170 170 171 172
314 308 299 294 291 277 266 258 247 233 225 220 224 215 207 188 192 187 196 187 192 174 167 173 171 176 180 180 178 176 174 172 171 171 171 170 170 169
310 307 298 284 283 280 268 258 246 240 232 223 224 222 218 208 193 185 182 184 196 180 170 175 173 177 176 179 178 175 173 172 171 171 170 169 169 170
301 302 304 306 310 300 292 276 262 250 237 227 227 226 214 203 193 191 190 187 187 169 161 174 171 177 172 176 174 173 172 172 171 169 168 167 168 168
302 300 302 310 328 333 313 294 275 255 240 232 231 230 218 201 192 193 186 170 143 157 156 166 163 157 148 160 170 169 169 169 168 168 168 167 167 166
326 328 325 326 328 332 308 292 287 274 251 235 225 219 210 200 183 169 174 173 171 172 157 147 147 130 133 155 164 165 164 165 167 168 168 165 164 162
323 328 347 342 329 323 307 295 289 283 270 247 225 215 208 199 192 188 186 182 167 166 169 150 147 138 131 132 154 163 161 163 165 167 167 165 162 161
319 327 340 345 335 325 311 288 281 285 275 257 232 198 185 186 190 193 190 185 175 167 167 151 148 141 133 134 146 164 162 159 163 167 169 170 170 169
303 315 324 329 326 319 309 295 294 287 256 243 231 205 191 188 182 177 178 179 176 165 164 157 149 158 142 139 148 157 163 165 165 168 174 177 179 181
286 299 304 307 312 309 300 306 310 290 254 232 223 208 185 165 150 144 140 135 125 140 156 157 147 152 147 147 151 154 158 169 172 168 173 180 186 185
295 302 298 294 290 287 295 294 288 294 284 241 200 167 147 141 140 138 140 136 128 120 126 145 150 150 147 143 150 157 158 167 174 172 171 179 192 195
320 302 291 287 293 288 291 296 302 331 325 201 148 146 147 144 141 138 140 137 136 146 138 125 117 119 130 145 154 161 162 164 170 171 170 181 194 199
305 288 289 284 278 278 279 275 262 249 219 171 148 144 150 152 150 148 148 144 144 146 146 144 136 117 95 69 148 163 168 168 167 170 167 179 198 204
264 267 269 268 264 260 251 241 238 226 194 179 174 171 164 160 159 160 158 152 152 152 154 154 156 152 154 162 185 181 170 167 166 174 183 182 196 205
237 250 258 256 251 247 243 233 226 218 202 193 186 183 176 171 170 172 170 163 157 153 156 164 175 173 170 168 167 183 182 167 170 179 185 190 192 189
248 243 243 242 237 237 234 224 217 214 210 201 198 191 184 178 178 177 173 170 163 161 171 182 187 175 144 123 128 144 167 178 175 174 175 178 190 196
254 252 246 235 228 226 225 221 220 217 213 210 204 196 190 187 187 182 178 176 177 175 176 170 159 159 163 161 164 164 162 154 154 171 181 181 173 195
245 247 245 238 228 220 218 218 221 223 216 208 204 198 194 192 191 185 183 179 176 175 167 160 162 168 177 173 171 169 169 169 167 173 216 214 204 177
Height
1481 1482 1482 1483 1485 1486 1488 1490 1492 1492 1493 1495 1497 1500 1503 1506 1509 1512 1516 1519 1523 1526 1529 1532 1535 1538 1541 1544 1546 1549 1551 1553 1555 1557 1558 1559 1561 1561
1478 1478 1478 1479 1480 1482 1483 1485 1487 1489 1489 1490 1492 1495 1498 1500 1503 1506 1510 1513 1517 1521 1524 1527 1530 1533 1536 1539 1542 1545 1547 1549 1551 1553 1555 1557 1558 1559
1475 1475 1474 1475 1475 1476 1478 1480 1481 1483 1484 1486 1488 1490 1492 1495 1497 1501 1505 1507 1511 1515 1518 1522 1525 1528 1532 1535 1538 1540 1543 1545 1548 1550 1552 1553 1555 1556
1472 1471 1471 1471 1472 1472 1473 1474 1476 1478 1480 1481 1482 1485 1487 1490 1493 1495 1499 1502 1505 1509 1512 1516 1520 1523 1527 1530 1533 1536 1539 1541 1544 1546 1548 1550 1552 1553
1469 1468 1468 1468 1468 1468 1469 1470 1471 1473 1474 1476 1477 1480 1482 1484 1487 1490 1493 1496 1499 1502 1506 1510 1514 1518 1521 1525 1528 1531 1534 1536 1539 1542 1544 1546 1548 1550
1466 1465 1465 1464 1464 1465 1465 1466 1467 1468 1469 1471 1472 1474 1476 1479 1482 1484 1487 1490 1493 1496 1500 1504 1508 1512 1515 1519 1522 1525 1528 1531 1534 1537 1539 1542 1544 1546
1463 1463 1462 1461 1461 1461 1461 1462 1462 1463 1464 1466 1467 1469 1470 1473 1475 1477 1481 1484 1487 1490 1493 1497 1501 1505 1509 1513 1516 1519 1523 1526 1529 1532 1535 1538 1540 1542
1461 1460 1459 1458 1458 1458 1458 1458 1459 1459 1460 1461 1462 1463 1464 1467 1469 1472 1475 1478 1480 1484 1487 1491 1494 1498 1502 1506 1509 1513 1517 1520 1524 1527 1530 1533 1536 1538
1458 1457 1456 1456 1455 1454 1454 1454 1454 1455 1456 1456 1457 1458 1459 1461 1464 1466 1469 1472 1474 1477 1481 1484 1488 1491 1495 1499 1504 1507 1511 1515 1519 1522 1525 1528 1531 1534
1456 1455 1454 1453 1452 1451 1450 1450 1450 1450 1451 1451 1452 1453 1455 1456 1458 1461 1463 1466 1469 1472 1476 1478 1482 1486 1490 1493 1497 1501 1506 1510 1513 1517 1520 1524 1527 1530
1455 1453 1451 1450 1449 1448 1447 1446 1446 1446 1446 1447 1447 1449 1450 1452 1453 1455 1458 1461 1463 1466 1470 1473 1477 1481 1485 1489 1492 1497 1501 1505 1509 1512 1516 1520 1523 1526
1452 1451 1449 1448 1447 1445 1444 1443 1442 1442 1442 1443 1443 1444 1445 1447 1448 1450 1453 1455 1458 1461 1464 1468 1472 1476 1481 1484 1488 1492 1496 1500 1505 1509 1512 1516 1519 1522
1451 1449 1447 1446 1444 1443 1442 1440 1439 1439 1439 1439 1440 1440 1441 1442 1444 1446 1448 1451 1453 1455 1459 1463 1467 1471 1475 1480 1484 1488 1492 1496 1500 1505 1508 1512 1515 1518
1449 1447 1446 1444 1442 1441 1439 1438 1437 1436 1436 1436 1437 1437 1438 1439 1440 1443 1445 1447 1450 1452 1455 1459 1462 1466 1470 1475 1479 1484 1488 1492 1497 1500 1504 1508 1511 1514
1448 1446 1444 1442 1441 1439 1437 1436 1435 1434 1434 1434 1434 1434 1435 1436 1438 1440 1441 1444 1446 1449 1452 1455 1459 1463 1467 1470 1475 1479 1484 1488 1492 1496 1500 1504 1507 1510
1447 1445 1443 1441 1439 1438 1436 1435 1434 1433 1433 1432 1432 1433 1434 1434 1436 1437 1439 1441 1444 1446 1449 1453 1457 1461 1464 1468 1472 1476 1480 1484 1488 1492 1496 1500 1503 1506
1445 1443 1441 1440 1438 1437 1436 1435 1434 1433 1433 1432 1432 1432 1432 1433 1434 1436 1438 1440 1442 1445 1448 1452 1455 1459 1463 1466 1470 1474 1477 1481 1485 1489 1493 1496 1499 1502
1443 1441 1440 1439 1437 1436 1435 1434 1434 1433 1433 1432 1432 1432 1432 1433 1434 1436 1437 1439 1441 1444 1447 1450 1454 1458 1462 1466 1469 1471 1475 1479 1482 1485 1489 1492 1494 1497
1441 1439 1438 1437 1436 1435 1434 1433 1433 1433 1432 1432 1432 1432 1432 1433 1434 1435 1437 1439 1441 1443 1446 1449 1452 1456 1459 1462 1466 1470 1472 1475 1479 1482 1485 1488 1490 1493
1438 1436 1435 1435 1434 1433 1432 1431 1431 1431 1431 1431 1431 1432 1432 1433 1434 1435 1436 1438 1440 1442 1445 1448 1451 1454 1457 1460 1463 1466 1470 1472 1476 1478 1481 1484 1487 1490
1434 1433 1433 1432 1431 1430 1430 1429 1429 1429 1429 1429 1430 1430 1431 1432 1433 1434 1435 1437 1439 1441 1443 1446 1449 1453 1456 1459 1461 1464 1467 1470 1472 1475 1478 1480 1483 1484
1431 1430 1430 1429 1428 1428 1427 1427 1427 1427 1427 1427 1427 1428 1429 1430 1431 1432 1434 1436 1438 1440 1442 1445 1448 1451 1453 1456 1458 1461 1464 1467 1469 1472 1475 1476 1477 1479
1428 1427 1426 1426 1425 1425 1424 1424 1423 1423 1424 1424 1424 1425 1426 1427 1429 1430 1432 1434 1436 1438 1440 1442 1445 1447 1450 1453 1455 1458 1460 1463 1465 1468 1470 1472 1474 1476